Weather History for Sanford, FL

Change the Weather History Date:

Tuesday, January 1, 2013

  Actual Average Record
Temperature  
Mean Temperature 63 °F -  
Max Temperature 75 °F 73 °F 85 °F (1991)
Min Temperature 51 °F 51 °F 28 °F (2001)
Degree Days  
Heating Degree Days 2    
Growing Degree Days 13 (Base 50)    
Moisture  
Dew Point 54 °F    
Average Humidity 74    
Maximum Humidity 92    
Minimum Humidity 48    
Precipitation  
Precipitation 0.00 in - - ()
Sea Level Pressure  
Sea Level Pressure 30.13 in    
Wind  
Wind Speed 4 mph (South)    
Max Wind Speed 16 mph    
Max Gust Speed 22 mph    
Visibility 9 miles    
Events      
Averages and records for this station are not official NWS values.
T = Trace of Precipitation, MM = Missing Value Source: NWS Daily Summary

Daily Weather History Graph

Daily Weather History Graph

Search for Another Location

Airport:

Trip Planner

Search our weather history database for the weather conditions in past years. The results will help you decide how hot, cold, wet, or windy it might be!

Date:

Astronomy

Jan. 01, 2013 Rise Set
Actual Time 7:18 AM EST 5:39 PM EST
Civil Twilight 6:52 AM EST 6:05 PM EST
Nautical Twilight 6:22 AM EST 6:34 PM EST
Astronomical Twilight 5:54 AM EST 7:03 PM EST
Moon 9:46 PM EST (1/1) 9:50 AM EST (1/1)
Length of Visible Light 11h 12m
Length of Day
10h 21m
Waning Gibbous, 83% of the Moon is Illuminated
Jan 1
Waning Gibbous
Jan 4
Last Quarter
Jan 11
New
Jan 18
First Quarter
Jan 26
Full

Hourly Weather History & Observations

Time (EST) Temp. Dew Point Humidity Pressure Visibility Wind Dir Wind Speed Gust Speed Precip Events Conditions
12:53 AM 59.0 °F 53.1 °F 81% 30.23 in 10.0 mi South 4.6 mph - N/A   Clear
1:53 AM 57.9 °F 53.1 °F 84% 30.20 in 7.0 mi SSE 4.6 mph - N/A   Clear
2:53 AM 57.0 °F 53.1 °F 87% 30.19 in 8.0 mi South 3.5 mph - N/A   Clear
3:53 AM 55.9 °F 52.0 °F 87% 30.17 in 10.0 mi SSE 4.6 mph - N/A   Clear
4:53 AM 55.9 °F 52.0 °F 87% 30.15 in 10.0 mi SSE 4.6 mph - N/A   Clear
5:53 AM 54.0 °F 51.1 °F 90% 30.16 in 10.0 mi Calm Calm - N/A   Clear
6:53 AM 51.1 °F 48.9 °F 92% 30.17 in 5.0 mi Calm Calm - N/A   Clear
8:53 AM 57.9 °F 55.0 °F 90% 30.19 in 6.0 mi Calm Calm - N/A   Overcast
9:53 AM 63.0 °F 57.0 °F 81% 30.20 in 10.0 mi Calm Calm - N/A   Overcast
10:53 AM 68.0 °F 55.9 °F 65% 30.18 in 10.0 mi Variable 5.8 mph - N/A   Overcast
11:53 AM 73.0 °F 55.0 °F 53% 30.14 in 10.0 mi SW 13.8 mph - N/A   Scattered Clouds
12:53 PM 73.9 °F 55.0 °F 52% 30.11 in 10.0 mi South 16.1 mph 21.9 mph N/A   Mostly Cloudy
2:53 PM 75.9 °F 55.0 °F 48% 30.07 in 10.0 mi SSW 8.1 mph - N/A   Scattered Clouds
3:53 PM 75.9 °F 55.0 °F 48% 30.06 in 10.0 mi South 8.1 mph - N/A   Partly Cloudy
4:53 PM 75.0 °F 55.0 °F 50% 30.06 in 10.0 mi SSW 6.9 mph - N/A   Mostly Cloudy
6:53 PM 70.0 °F 54.0 °F 57% 30.08 in 10.0 mi SSW 4.6 mph - N/A   Clear
7:53 PM 66.0 °F 55.9 °F 70% 30.07 in 10.0 mi SSE 4.6 mph - N/A   Clear
8:53 PM 62.1 °F 55.0 °F 78% 30.07 in 10.0 mi Calm Calm - N/A   Clear
9:53 PM 61.0 °F 55.0 °F 81% 30.08 in 10.0 mi West 4.6 mph - N/A   Clear
10:53 PM 60.1 °F 54.0 °F 80% 30.08 in 10.0 mi Calm Calm - N/A   Clear
11:53 PM 57.0 °F 54.0 °F 89% 30.06 in 10.0 mi SSE 3.5 mph - N/A   Clear